(332686) = 2009 OL2

Discovered at La Sagra on 2009-07-19 by La Sagra.

Orbit

Orbit type: Main Belt

Note: WebGL enabled browser required.

epoch2023-09-13.0
epoch JD2460200.5
perihelion date2022-11-04.11203
perihelion JD2459887.61203
argument of perihelion (°)178.24447
ascending node (°)153.23155
inclination (°)5.39801
eccentricity0.2145919
perihelion distance (AU)1.7335236
Tisserand w.r.t. Jupiter3.6
ΔV w.r.t. Earth (km/sec)8.2
semimajor axis (AU)2.2071628
mean anomaly (°)94.04618
mean daily motion (°/day)0.30057460
aphelion distance (AU)2.681
period (years)3.28
P-vector [x]0.87867852
P-vector [y]-0.43915711
P-vector [z]-0.18725675
Q-vector [x]0.47553011
Q-vector [y]0.83988741
Q-vector [z]0.26164911
absolute magnitude18.12
phase slope0.15
uncertainty0
referenceMPEC 2024-A141
observations used192
oppositions10
arc length (days)6312
first opposition used2006
last opposition used2024
residual rms (arc-secs)0.72
perturbers coarse indicatorM-v
perturbers precise indicator003Ek
first observation date used2006-09-30.0
last observation date used2024-01-11.0
computer nameMPCLINUX
JD of orbit computation2456670.654525
perihelion JD uncertainty (days)1.7546E-04
argument of perihelion uncertainty (°)9.0226E-05
ascending node uncertainty (°)7.6155E-05
inclination uncertainty (°)8.4966E-06
eccentricity uncertainty 1.0788E-07
perihelion distance uncertainty (AU)2.7831E-07
Minimum Orbit Intersection Distances (in AU)
for orbit epoch: 2460200.5, reference: E2024-AE1
Mercury1.32968
Venus1.00783
Earth0.72232
Mars0.35528
Jupiter2.67156
Saturn6.52934
Uranus15.7754
Neptune27.6651

Observations

198 total observations over interval: 2006 09 30.33089 – 2024 01 11.312848
These data are available for download (format description).

Date (UT) J2000 RA J2000 Dec Magn Location Ref
2006 09 30.33089 02 36 40.96 +06 47 31.7 19.9 V 703 – Catalina Sky Survey MPS 294463
2006 09 30.34281 02 36 40.60 +06 47 27.0 19.5 V 703 – Catalina Sky Survey MPS 294463
2006 09 30.35479 02 36 40.32 +06 47 20.8 20.9 V 703 – Catalina Sky Survey MPS 294463
2006 09 30.36673 02 36 39.78 +06 47 16.0 19.8 V 703 – Catalina Sky Survey MPS 294463
2006 09 30.42757 02 36 37.90 +06 46 47.4 20.3 V 703 – Catalina Sky Survey MPS 294463
2006 09 30.43681 02 36 37.72 +06 46 44.7 20.0 V 703 – Catalina Sky Survey MPS 294463
2006 09 30.44604 02 36 37.33 +06 46 39.7 20.2 V 703 – Catalina Sky Survey MPS 294463
2006 09 30.45537 02 36 37.15 +06 46 34.8 19.8 V 703 – Catalina Sky Survey MPS 294463
2006 10 22.34042 02 19 53.50 +03 52 49.2 19.6 V 703 – Catalina Sky Survey MPS 294463
2006 10 22.34634 02 19 53.18 +03 52 47.0 19.9 V 703 – Catalina Sky Survey MPS 294463
2006 10 22.35228 02 19 52.89 +03 52 44.6 19.3 V 703 – Catalina Sky Survey MPS 294463
2006 10 22.35819 02 19 52.50 +03 52 41.5 20.0 V 703 – Catalina Sky Survey MPS 294463
2009 06 15.43267 20 47 23.69 -10 22 01.7 20.2 V 691 – Steward Observatory, Kitt Peak-Spacewatch MPS 290305
2009 06 15.45038 20 47 24.02 -10 21 59.8 20.3 V 691 – Steward Observatory, Kitt Peak-Spacewatch MPS 290305
2009 06 15.46804 20 47 24.35 -10 21 57.8 20.2 V 691 – Steward Observatory, Kitt Peak-Spacewatch MPS 290305
2009 07 19.02287 20 41 59.66 -11 35 14.9 18.6 V J75 – OAM Observatory, La Sagra MPS 289911
2009 07 19.03527 20 41 59.08 -11 35 19.4 19.3 V J75 – OAM Observatory, La Sagra MPS 289911
2009 07 19.04763 20 41 58.55 -11 35 24.1 18.8 V J75 – OAM Observatory, La Sagra MPS 289911
2009 07 20.98017 20 40 41.86 -11 48 06.0 18.4 V J75 – OAM Observatory, La Sagra MPS 289911
2009 07 20.98838 20 40 41.46 -11 48 09.4 18.5 V J75 – OAM Observatory, La Sagra MPS 289911
2009 07 20.99659 20 40 41.14 -11 48 12.2 18.6 V J75 – OAM Observatory, La Sagra MPS 289911
2009 07 21.00479 20 40 40.79 -11 48 15.7 19.1 V J75 – OAM Observatory, La Sagra MPS 289911
2009 07 21.01302 20 40 40.43 -11 48 19.2 18.7 V J75 – OAM Observatory, La Sagra MPS 289911
2009 07 23.92839 20 38 37.50 -12 08 57.3 19.5 V J75 – OAM Observatory, La Sagra MPS 290305
2009 07 23.94089 20 38 36.98 -12 09 00.6 19.4 V J75 – OAM Observatory, La Sagra MPS 290305
2009 07 23.95344 20 38 36.32 -12 09 05.4 19.3 V J75 – OAM Observatory, La Sagra MPS 290305
2009 07 25.98111 20 37 06.44 -12 24 23.3 19.1   A77 – Observatoire Chante-Perdrix, Dauban MPS 290305
2009 07 26.00147 20 37 05.54 -12 24 32.1 18.7   A77 – Observatoire Chante-Perdrix, Dauban MPS 290305
2009 07 26.02183 20 37 04.50 -12 24 41.9 18.6   A77 – Observatoire Chante-Perdrix, Dauban MPS 290305
2009 07 27.29018 20 36 07.38 -12 34 35.0 19.1 V 703 – Catalina Sky Survey MPS 290305
2009 07 27.29859 20 36 07.05 -12 34 38.6 18.9 V 703 – Catalina Sky Survey MPS 290305
2009 07 27.30694 20 36 06.58 -12 34 42.4 19.1 V 703 – Catalina Sky Survey MPS 290305
2009 07 27.31542 20 36 06.19 -12 34 46.3 18.9 V 703 – Catalina Sky Survey MPS 290305
2009 07 28.87051 20 34 55.52 -12 47 16.8 19.0 R A77 – Observatoire Chante-Perdrix, Dauban MPS 290305
2009 07 28.91091 20 34 53.58 -12 47 35.9 18.7 R A77 – Observatoire Chante-Perdrix, Dauban MPS 290305
2009 07 28.95144 20 34 51.50 -12 47 55.4 18.4 R A77 – Observatoire Chante-Perdrix, Dauban MPS 290305
2009 08 16.14765 20 22 04.58 -15 26 04.7 19.5 V 691 – Steward Observatory, Kitt Peak-Spacewatch MPS 291805
2009 08 16.16687 20 22 03.86 -15 26 15.0 19.5 V 691 – Steward Observatory, Kitt Peak-Spacewatch MPS 291805
2009 08 16.18610 20 22 03.14 -15 26 24.9 19.5 V 691 – Steward Observatory, Kitt Peak-Spacewatch MPS 291805
2009 08 18.15305 20 21 01.81 -15 43 16.9 19.6 V 691 – Steward Observatory, Kitt Peak-Spacewatch MPS 291805
2009 08 18.16717 20 21 01.35 -15 43 24.1 19.6 V 691 – Steward Observatory, Kitt Peak-Spacewatch MPS 291805
2009 08 18.18129 20 21 00.87 -15 43 31.7 19.6 V 691 – Steward Observatory, Kitt Peak-Spacewatch MPS 291805
2009 09 11.53918 20 19 45.19 -18 26 49.3 20.4 V E12 – Siding Spring Survey MPS 295067
2009 09 11.54958 20 19 45.44 -18 26 52.7 19.7 V E12 – Siding Spring Survey MPS 295067
2009 09 21.12798 20 25 36.84 -19 00 22.1 20.7 V G96 – Mt. Lemmon Survey MPS 295934
2009 09 21.13654 20 25 37.20 -19 00 23.1 20.1 V G96 – Mt. Lemmon Survey MPS 295934
2009 09 21.14506 20 25 37.56 -19 00 24.7 19.9 V G96 – Mt. Lemmon Survey MPS 295934
2009 09 21.15359 20 25 37.95 -19 00 25.5 20.0 V G96 – Mt. Lemmon Survey MPS 295934
2011 02 12.24752 08 39 22.57 +15 26 40.3 21.6 V G96 – Mt. Lemmon Survey MPS 369596
2011 02 12.25335 08 39 22.21 +15 26 43.0 22.3 V G96 – Mt. Lemmon Survey MPS 369596
2011 02 12.26488 08 39 21.49 +15 26 46.7 21.9 V G96 – Mt. Lemmon Survey MPS 369596
2012 05 12.37892 16 05 57.26 -10 37 48.3 19.6 V G96 – Mt. Lemmon Survey MPS 423970
2012 05 12.38581 16 05 56.83 -10 37 46.2 19.8 V G96 – Mt. Lemmon Survey MPS 423970
2012 05 12.39275 16 05 56.43 -10 37 44.3 19.9 V G96 – Mt. Lemmon Survey MPS 423970
2012 05 13.38641 16 04 59.05 -10 32 53.6 19.8 V G96 – Mt. Lemmon Survey MPS 423970
2012 05 13.39281 16 04 58.69 -10 32 51.7 19.9 V G96 – Mt. Lemmon Survey MPS 423970
2012 05 13.39918 16 04 58.29 -10 32 49.5 19.7 V G96 – Mt. Lemmon Survey MPS 423970
2012 05 13.40557 16 04 57.90 -10 32 47.8 19.6 V G96 – Mt. Lemmon Survey MPS 423970
2012 06 10.21723 15 36 52.08 -09 03 09.4 20.1 V 691 – Steward Observatory, Kitt Peak-Spacewatch MPS 426521
2012 06 10.27850 15 36 48.85 -09 03 06.6 20.4 V 691 – Steward Observatory, Kitt Peak-Spacewatch MPS 426521
2012 06 10.33979 15 36 45.57 -09 03 02.9 20.7 V 691 – Steward Observatory, Kitt Peak-Spacewatch MPS 426521
2013 12 11.56027 07 16 47.599 +15 00 37.56 21.3 w F51 – Pan-STARRS 1, Haleakala MPS 491958
2013 12 11.57540 07 16 46.762 +15 00 38.63 21.1 w F51 – Pan-STARRS 1, Haleakala MPS 491958
2013 12 11.59054 07 16 45.930 +15 00 39.80 21.0 w F51 – Pan-STARRS 1, Haleakala MPS 491958
2013 12 30.36831 06 56 53.138 +15 42 09.15 20.9 w F51 – Pan-STARRS 1, Haleakala MPS 495154
2013 12 30.38354 06 56 52.031 +15 42 11.85 20.9 w F51 – Pan-STARRS 1, Haleakala MPS 495154
2013 12 30.39867 06 56 50.939 +15 42 14.76 20.9 w F51 – Pan-STARRS 1, Haleakala MPS 495154
2015 03 21.47809 13 41 40.803 -04 18 06.28 21.9 w F51 – Pan-STARRS 1, Haleakala MPS 594988
2015 03 21.48940 13 41 40.310 -04 18 01.63 21.6 w F51 – Pan-STARRS 1, Haleakala MPS 594988
2015 03 21.50069 13 41 39.834 -04 17 56.85 21.7 w F51 – Pan-STARRS 1, Haleakala MPS 594988
2015 03 21.51199 13 41 39.349 -04 17 51.85 22.0 w F51 – Pan-STARRS 1, Haleakala MPS 594988
2015 03 22.45406 13 41 00.763 -04 11 07.23 21.7 w F51 – Pan-STARRS 1, Haleakala MPS 594988
2015 03 22.47734 13 40 59.764 -04 10 57.10 21.8 w F51 – Pan-STARRS 1, Haleakala MPS 594988
2015 03 22.48898 13 40 59.233 -04 10 52.13 21.8 w F51 – Pan-STARRS 1, Haleakala MPS 594988
2015 04 16.34609 13 18 44.925 -00 57 36.40 21.3 w F51 – Pan-STARRS 1, Haleakala MPS 600476
2015 04 16.36056 13 18 44.045 -00 57 30.00 21.3 w F51 – Pan-STARRS 1, Haleakala MPS 600476
2015 04 16.37508 13 18 43.155 -00 57 23.64 21.4 w F51 – Pan-STARRS 1, Haleakala MPS 600476
2015 04 16.38958 13 18 42.267 -00 57 16.84 21.2 w F51 – Pan-STARRS 1, Haleakala MPS 600476
2015 04 18.34544 13 16 46.942 -00 42 49.81 21.3 w F51 – Pan-STARRS 1, Haleakala MPS 602960
2015 04 18.35999 13 16 46.043 -00 42 43.37 21.4 w F51 – Pan-STARRS 1, Haleakala MPS 602960
2015 04 18.37454 13 16 45.166 -00 42 36.94 21.4 w F51 – Pan-STARRS 1, Haleakala MPS 602960
2015 04 18.38933 13 16 44.254 -00 42 30.48 21.2 w F51 – Pan-STARRS 1, Haleakala MPS 602960
2015 04 20.37921 13 14 48.056 -00 28 15.10 21.6 w F51 – Pan-STARRS 1, Haleakala MPS 602960
2015 04 20.39274 13 14 47.245 -00 28 09.71 21.4 w F51 – Pan-STARRS 1, Haleakala MPS 602960
2015 04 20.41971 13 14 45.610 -00 27 57.94 21.2 w F51 – Pan-STARRS 1, Haleakala MPS 602960
2016 10 28.57065 04 46 02.326 +12 54 33.92 20.6 w F51 – Pan-STARRS 1, Haleakala MPS 741857
2016 10 28.58248 04 46 01.863 +12 54 30.93 20.4 w F51 – Pan-STARRS 1, Haleakala MPS 741857
2016 10 28.59426 04 46 01.401 +12 54 27.77 20.5 w F51 – Pan-STARRS 1, Haleakala MPS 741857
2016 10 28.60607 04 46 00.936 +12 54 24.64 20.5 w F51 – Pan-STARRS 1, Haleakala MPS 741857
